| time (UTC) | temp F | wind direction | speed knots | gust knots | rain 1hr in | rain 24hr in | rain mn in | humidity % | barometer mb |
| 20260503035320 | 55 | 229 | 3.5 | 4.3 | 0.00 | 0.00 | 0.00 | 72 | 1020.6 |
| 20260503034818 | 55 | 299 | 3.5 | 4.3 | 0.00 | 0.00 | 0.00 | 72 | 1020.6 |
| 20260503034315 | 55 | 19 | 1.7 | 4.3 | 0.00 | 0.00 | 0.00 | 71 | 1020.7 |
| 20260503033834 | 55 | 31 | 1.7 | 4.3 | 0.00 | 0.00 | 0.00 | 71 | 1020.6 |
| 20260503033327 | 55 | 351 | 0.9 | 3.5 | 0.00 | 0.00 | 0.00 | 71 | 1020.6 |
| 20260503032824 | 56 | 351 | 0.9 | 5.2 | 0.00 | 0.00 | 0.00 | 70 | 1020.6 |
| 20260503032321 | 56 | 349 | 3.5 | 5.2 | 0.00 | 0.00 | 0.00 | 69 | 1020.7 |
| 20260503031816 | 56 | 327 | 4.3 | 5.2 | 0.00 | 0.00 | 0.00 | 69 | 1020.7 |
| 20260503031334 | 56 | 327 | 4.3 | 7.0 | 0.00 | 0.00 | 0.00 | 70 | 1020.7 |
| 20260503030830 | 56 | 348 | 4.3 | 7.0 | 0.00 | 0.00 | 0.00 | 69 | 1020.7 |
| 20260503030328 | 56 | 310 | 2.6 | 3.5 | 0.00 | 0.00 | 0.00 | 69 | 1020.8 |
| 20260503025825 | 56 | 10 | 2.6 | 3.5 | 0.00 | 0.00 | 0.00 | 70 | 1020.7 |
| 20260503025342 | 56 | 325 | 1.7 | 4.3 | 0.00 | 0.00 | 0.00 | 70 | 1020.7 |
| 20260503024819 | 56 | 325 | 3.5 | 4.3 | 0.00 | 0.00 | 0.00 | 70 | 1020.9 |
| 20260503024316 | 56 | 331 | 3.5 | 4.3 | 0.00 | 0.00 | 0.00 | 70 | 1020.9 |
| 20260503023814 | 57 | 44 | 0.9 | 2.6 | 0.00 | 0.00 | 0.00 | 69 | 1021.0 |
| 20260503023332 | 57 | 44 | 0.0 | 4.3 | 0.00 | 0.00 | 0.00 | 69 | 1020.9 |
| 20260503022830 | 56 | 44 | 3.5 | 4.3 | 0.00 | 0.00 | 0.00 | 69 | 1021.0 |
| 20260503022329 | 57 | 351 | 0.9 | 3.5 | 0.00 | 0.00 | 0.00 | 69 | 1021.0 |
| 20260503021829 | 57 | 351 | 2.6 | 3.5 | 0.00 | 0.00 | 0.00 | 69 | 1021.0 |
| 20260503021326 | 57 | 301 | 1.7 | 3.5 | 0.00 | 0.00 | 0.00 | 68 | 1021.0 |
| 20260503020825 | 58 | 42 | 0.9 | 3.5 | 0.00 | 0.00 | 0.00 | 67 | 1021.0 |
| 20260503020345 | 58 | 42 | 1.7 | 4.3 | 0.00 | 0.00 | 0.00 | 66 | 1021.0 |
| 20260503015823 | 59 | 320 | 2.6 | 4.3 | 0.00 | 0.00 | 0.00 | 66 | 1021.0 |
| 20260503015320 | 59 | 5 | 1.7 | 8.7 | 0.00 | 0.00 | 0.00 | 65 | 1021.1 |
| 20260503014819 | 59 | 351 | 4.3 | 8.7 | 0.00 | 0.00 | 0.00 | 65 | 1021.0 |
| 20260503014318 | 59 | 331 | 4.3 | 7.0 | 0.00 | 0.00 | 0.00 | 65 | 1021.1 |
| 20260503013817 | 59 | 300 | 4.3 | 7.0 | 0.00 | 0.00 | 0.00 | 66 | 1021.1 |
| 20260503013315 | 58 | 323 | 4.3 | 7.0 | 0.00 | 0.00 | 0.00 | 68 | 1021.1 |
| 20260503012833 | 57 | 299 | 5.2 | 7.0 | 0.00 | 0.00 | 0.00 | 67 | 1021.2 |
| 20260503012331 | 58 | 304 | 2.6 | 7.0 | 0.00 | 0.00 | 0.00 | 66 | 1021.2 |
| 20260503011828 | 58 | 44 | 2.6 | 4.3 | 0.00 | 0.00 | 0.00 | 66 | 1021.2 |
| 20260503011324 | 58 | 296 | 1.7 | 8.7 | 0.00 | 0.00 | 0.00 | 66 | 1021.3 |
| 20260503010843 | 59 | 351 | 4.3 | 8.7 | 0.00 | 0.00 | 0.00 | 65 | 1021.4 |
| 20260503010340 | 59 | 329 | 6.1 | 8.7 | 0.00 | 0.00 | 0.00 | 64 | 1021.4 |
| 20260503005819 | 59 | 360 | 6.1 | 8.7 | 0.00 | 0.00 | 0.00 | 64 | 1021.4 |
| 20260503005336 | 59 | 342 | 4.3 | 7.0 | 0.00 | 0.00 | 0.00 | 65 | 1021.4 |
| 20260503004859 | 59 | 331 | 3.5 | 5.2 | 0.00 | 0.00 | 0.00 | 65 | 1021.5 |
| 20260503004357 | 58 | 304 | 2.6 | 4.3 | 0.00 | 0.00 | 0.00 | 66 | 1021.5 |
| 20260503003830 | 58 | 351 | 2.6 | 4.3 | 0.00 | 0.00 | 0.00 | 66 | 1021.5 |
| 20260503003327 | 58 | 341 | 2.6 | 4.3 | 0.00 | 0.00 | 0.00 | 65 | 1021.6 |
| 20260503002825 | 58 | 321 | 2.6 | 4.3 | 0.00 | 0.00 | 0.00 | 66 | 1021.7 |
| 20260503002342 | 57 | 334 | 2.6 | 3.5 | 0.00 | 0.00 | 0.00 | 67 | 1021.8 |
| 20260503001839 | 58 | 342 | 2.6 | 5.2 | 0.00 | 0.00 | 0.00 | 66 | 1021.7 |
| 20260503001334 | 58 | 342 | 3.5 | 5.2 | 0.00 | 0.00 | 0.00 | 66 | 1021.8 |
| 20260503000834 | 59 | 331 | 4.3 | 5.2 | 0.00 | 0.00 | 0.00 | 65 | 1021.8 |
| 20260503000319 | 59 | 360 | 2.6 | 4.3 | 0.00 | 0.00 | 0.00 | 65 | 1021.9 |
| 20260502235816 | 59 | 360 | 3.5 | 5.2 | 0.00 | 0.00 | 0.00 | 65 | 1021.9 |
| 20260502235333 | 59 | 346 | 3.5 | 5.2 | 0.00 | 0.00 | 0.00 | 65 | 1022.0 |
| 20260502234852 | 59 | 344 | 1.7 | 3.5 | 0.00 | 0.00 | 0.00 | 64 | 1021.9 |
| 20260502234328 | 59 | 302 | 1.7 | 4.3 | 0.00 | 0.00 | 0.00 | 65 | 1022.0 |
| 20260502233821 | 59 | 300 | 1.7 | 4.3 | 0.00 | 0.00 | 0.00 | 64 | 1022.1 |
| 20260502233321 | 59 | 33 | 1.7 | 4.3 | 0.00 | 0.00 | 0.00 | 63 | 1022.1 |
| 20260502232845 | 60 | 15 | 2.6 | 7.0 | 0.00 | 0.00 | 0.00 | 63 | 1022.1 |
| 20260502232322 | 60 | 22 | 4.3 | 7.0 | 0.00 | 0.00 | 0.00 | 63 | 1022.1 |
| 20260502231819 | 60 | 340 | 4.3 | 7.8 | 0.00 | 0.00 | 0.00 | 63 | 1022.2 |
| 20260502231336 | 59 | 16 | 4.3 | 7.8 | 0.00 | 0.00 | 0.00 | 64 | 1022.2 |
| 20260502230855 | 59 | 335 | 5.2 | 7.8 | 0.00 | 0.00 | 0.00 | 64 | 1022.3 |
| 20260502230328 | 59 | 15 | 1.7 | 4.3 | 0.00 | 0.00 | 0.00 | 64 | 1022.2 |
| 20260502225833 | 59 | 17 | 1.7 | 4.3 | 0.00 | 0.00 | 0.00 | 63 | 1022.3 |
| 20260502225322 | 60 | 301 | 2.6 | 7.0 | 0.00 | 0.00 | 0.00 | 62 | 1022.2 |
| 20260502224822 | 60 | 360 | 3.5 | 9.6 | 0.00 | 0.00 | 0.00 | 62 | 1022.3 |
| 20260502224320 | 61 | 24 | 4.3 | 9.6 | 0.00 | 0.00 | 0.00 | 61 | 1022.3 |
| 20260502223838 | 60 | 14 | 3.5 | 7.8 | 0.00 | 0.00 | 0.00 | 61 | 1022.3 |
| 20260502223334 | 60 | 312 | 3.5 | 7.0 | 0.00 | 0.00 | 0.00 | 62 | 1022.4 |
| 20260502222848 | 60 | 351 | 4.3 | 7.8 | 0.00 | 0.00 | 0.00 | 63 | 1022.4 |
| 20260502222323 | 60 | 5 | 5.2 | 7.8 | 0.00 | 0.00 | 0.00 | 62 | 1022.4 |
| 20260502221821 | 61 | 360 | 4.3 | 7.0 | 0.00 | 0.00 | 0.00 | 61 | 1022.3 |
| 20260502221348 | 61 | 360 | 5.2 | 7.0 | 0.00 | 0.00 | 0.00 | 61 | 1022.4 |
| 20260502220824 | 61 | 323 | 3.5 | 6.1 | 0.00 | 0.00 | 0.00 | 61 | 1022.3 |
| 20260502220321 | 61 | 329 | 2.6 | 7.0 | 0.00 | 0.00 | 0.00 | 61 | 1022.4 |
| 20260502215817 | 61 | 286 | 5.2 | 7.0 | 0.00 | 0.00 | 0.00 | 61 | 1022.4 |
| 20260502215336 | 61 | 275 | 2.6 | 6.1 | 0.00 | 0.00 | 0.00 | 61 | 1022.3 |
| 20260502214815 | 62 | 281 | 3.5 | 6.1 | 0.00 | 0.00 | 0.00 | 60 | 1022.4 |
| 20260502214331 | 62 | 15 | 1.7 | 5.2 | 0.00 | 0.00 | 0.00 | 59 | 1022.3 |
| 20260502213829 | 63 | 18 | 1.7 | 5.2 | 0.00 | 0.00 | 0.00 | 59 | 1022.2 |
| 20260502213326 | 63 | 46 | 0.9 | 5.2 | 0.00 | 0.00 | 0.00 | 58 | 1022.2 |
| 20260502212825 | 62 | 348 | 1.7 | 4.3 | 0.00 | 0.00 | 0.00 | 59 | 1022.3 |
| 20260502212324 | 62 | 11 | 1.7 | 9.6 | 0.00 | 0.00 | 0.00 | 59 | 1022.3 |
| 20260502211822 | 62 | 19 | 4.3 | 9.6 | 0.00 | 0.00 | 0.00 | 59 | 1022.2 |
| 20260502211320 | 61 | 19 | 3.5 | 7.0 | 0.00 | 0.00 | 0.00 | 60 | 1022.2 |
| 20260502210840 | 61 | 319 | 1.7 | 4.3 | 0.00 | 0.00 | 0.00 | 59 | 1022.3 |
| 20260502210336 | 61 | 311 | 3.5 | 4.3 | 0.00 | 0.00 | 0.00 | 60 | 1022.3 |
| 20260502205832 | 61 | 281 | 3.5 | 4.3 | 0.00 | 0.00 | 0.00 | 59 | 1022.4 |
| 20260502205330 | 62 | 267 | 3.5 | 7.0 | 0.00 | 0.00 | 0.00 | 58 | 1022.4 |
| 20260502204828 | 62 | 5 | 2.6 | 7.0 | 0.00 | 0.00 | 0.00 | 57 | 1022.3 |
| 20260502204344 | 63 | 310 | 3.5 | 5.2 | 0.00 | 0.00 | 0.00 | 56 | 1022.2 |
| 20260502203823 | 63 | 27 | 1.7 | 4.3 | 0.00 | 0.00 | 0.00 | 55 | 1022.3 |
| 20260502203323 | 63 | 42 | 0.9 | 4.3 | 0.00 | 0.00 | 0.00 | 55 | 1022.2 |
| 20260502202823 | 62 | 360 | 3.5 | 5.2 | 0.00 | 0.00 | 0.00 | 55 | 1022.3 |
| 20260502202321 | 62 | 333 | 3.5 | 5.2 | 0.00 | 0.00 | 0.00 | 54 | 1022.3 |
| 20260502201819 | 62 | 315 | 4.3 | 5.2 | 0.00 | 0.00 | 0.00 | 55 | 1022.2 |
| 20260502201317 | 62 | 292 | 3.5 | 6.1 | 0.00 | 0.00 | 0.00 | 55 | 1022.3 |
| 20260502200814 | 62 | 287 | 2.6 | 6.1 | 0.00 | 0.00 | 0.00 | 54 | 1022.4 |
| 20260502200333 | 63 | 283 | 2.6 | 3.5 | 0.00 | 0.00 | 0.00 | 53 | 1022.2 |
| 20260502195830 | 64 | 46 | 0.9 | 4.3 | 0.00 | 0.00 | 0.00 | 51 | 1022.2 |
| 20260502195327 | 64 | 46 | 1.7 | 7.0 | 0.00 | 0.00 | 0.00 | 50 | 1022.2 |
| 20260502194845 | 64 | 351 | 4.3 | 7.0 | 0.00 | 0.00 | 0.00 | 49 | 1022.1 |
| 20260502194323 | 64 | 323 | 4.3 | 7.0 | 0.00 | 0.00 | 0.00 | 50 | 1022.0 |
| 20260502193821 | 64 | 327 | 4.3 | 7.8 | 0.00 | 0.00 | 0.00 | 51 | 1022.1 |
| 20260502193319 | 64 | 336 | 4.3 | 7.8 | 0.00 | 0.00 | 0.00 | 50 | 1022.1 |
| 20260502192819 | 65 | 336 | 4.3 | 7.0 | 0.00 | 0.00 | 0.00 | 50 | 1021.9 |
| 20260502192318 | 65 | 326 | 4.3 | 7.8 | 0.00 | 0.00 | 0.00 | 50 | 1022.0 |
| 20260502191836 | 65 | 327 | 6.1 | 7.8 | 0.00 | 0.00 | 0.00 | 50 | 1022.0 |
| 20260502191330 | 65 | 332 | 4.3 | 7.0 | 0.00 | 0.00 | 0.00 | 50 | 1021.9 |
| 20260502190829 | 65 | 335 | 4.3 | 7.8 | 0.00 | 0.00 | 0.00 | 49 | 1021.9 |
| 20260502190347 | 65 | 340 | 3.5 | 7.8 | 0.00 | 0.00 | 0.00 | 49 | 1021.9 |
| 20260502185825 | 66 | 338 | 4.3 | 7.8 | 0.00 | 0.00 | 0.00 | 49 | 1021.8 |
| 20260502185345 | 66 | 344 | 4.3 | 7.8 | 0.00 | 0.00 | 0.00 | 48 | 1021.8 |
| 20260502184850 | 65 | 319 | 5.2 | 7.8 | 0.00 | 0.00 | 0.00 | 49 | 1021.8 |
| 20260502184327 | 66 | 322 | 5.2 | 7.8 | 0.00 | 0.00 | 0.00 | 49 | 1021.6 |
| 20260502183826 | 66 | 301 | 5.2 | 7.8 | 0.00 | 0.00 | 0.00 | 49 | 1021.7 |
| 20260502183322 | 66 | 323 | 5.2 | 7.0 | 0.00 | 0.00 | 0.00 | 49 | 1021.6 |
| 20260502182821 | 66 | 351 | 5.2 | 7.8 | 0.00 | 0.00 | 0.00 | 49 | 1021.5 |
| 20260502182340 | 66 | 319 | 7.0 | 7.8 | 0.00 | 0.00 | 0.00 | 50 | 1021.5 |
| 20260502181815 | 66 | 325 | 4.3 | 5.2 | 0.00 | 0.00 | 0.00 | 49 | 1021.5 |
| 20260502181333 | 66 | 324 | 4.3 | 5.2 | 0.00 | 0.00 | 0.00 | 49 | 1021.4 |
| 20260502180852 | 67 | 336 | 4.3 | 5.2 | 0.00 | 0.00 | 0.00 | 48 | 1021.5 |
| 20260502180329 | 67 | 333 | 4.3 | 5.2 | 0.00 | 0.00 | 0.00 | 48 | 1021.4 |
| 20260502170329 | 69 | 139 | 3.5 | 6.1 | 0.00 | 0.00 | 0.00 | 45 | 1021.6 |
| 20260502164319 | 69 | 186 | 0.9 | 10.4 | 0.00 | 0.00 | 0.00 | 46 | 1021.7 |
| 20260502163818 | 69 | 143 | 5.2 | 10.4 | 0.00 | 0.00 | 0.00 | 46 | 1021.7 |
| 20260502163316 | 69 | 130 | 1.7 | 7.0 | 0.00 | 0.00 | 0.00 | 46 | 1021.6 |
| 20260502162854 | 69 | 171 | 2.6 | 7.0 | 0.00 | 0.00 | 0.00 | 46 | 1021.7 |
| 20260502162329 | 69 | 128 | 2.6 | 7.0 | 0.00 | 0.00 | 0.00 | 46 | 1021.7 |
| 20260502161823 | 69 | 131 | 1.7 | 3.5 | 0.00 | 0.00 | 0.00 | 47 | 1021.8 |
| 20260502161320 | 69 | 138 | 1.7 | 5.2 | 0.00 | 0.00 | 0.00 | 48 | 1021.8 |
| 20260502160838 | 69 | 198 | 3.5 | 9.6 | 0.00 | 0.00 | 0.00 | 48 | 1021.9 |
| 20260502160317 | 69 | 171 | 4.3 | 9.6 | 0.00 | 0.00 | 0.00 | 48 | 1021.9 |
| 20260502152319 | 69 | 163 | 3.5 | 7.8 | 0.00 | 0.00 | 0.00 | 51 | 1022.1 |
| 20260502151818 | 68 | 203 | 5.2 | 8.7 | 0.00 | 0.00 | 0.00 | 48 | 1022.1 |
| 20260502151336 | 69 | 164 | 4.3 | 7.0 | 0.00 | 0.00 | 0.00 | 49 | 1022.2 |
| 20260502150834 | 68 | 164 | 2.6 | 7.8 | 0.00 | 0.00 | 0.00 | 50 | 1022.2 |
| 20260502150331 | 68 | 185 | 3.5 | 7.8 | 0.00 | 0.00 | 0.00 | 50 | 1022.1 |
| 20260502130323 | 68 | 136 | 4.3 | 10.4 | 0.00 | 0.00 | 0.00 | 49 | 1023.8 |
| 20260502123328 | 66 | 136 | 7.8 | 11.3 | 0.00 | 0.00 | 0.00 | 51 | 1024.1 |
| 20260502122825 | 66 | 136 | 7.8 | 11.3 | 0.00 | 0.00 | 0.00 | 52 | 1024.1 |
| 20260502122325 | 67 | 133 | 7.8 | 11.3 | 0.00 | 0.00 | 0.00 | 49 | 1024.1 |
| 20260502121824 | 66 | 159 | 7.0 | 12.2 | 0.00 | 0.00 | 0.00 | 52 | 1024.4 |
| 20260502121320 | 66 | 145 | 7.8 | 11.3 | 0.00 | 0.00 | 0.00 | 51 | 1024.4 |
| 20260502120819 | 66 | 152 | 5.2 | 11.3 | 0.00 | 0.00 | 0.00 | 52 | 1024.4 |
| 20260502120338 | 66 | 157 | 7.8 | 12.2 | 0.00 | 0.00 | 0.00 | 49 | 1024.4 |
| 20260502115852 | 66 | 136 | 7.0 | 10.4 | 0.00 | 0.00 | 0.00 | 52 | 1024.5 |
| 20260502115329 | 66 | 153 | 6.1 | 10.4 | 0.00 | 0.00 | 0.00 | 50 | 1024.7 |
| 20260502114828 | 66 | 138 | 7.0 | 10.4 | 0.00 | 0.00 | 0.00 | 49 | 1024.6 |
| 20260502114345 | 66 | 145 | 7.0 | 11.3 | 0.00 | 0.00 | 0.00 | 51 | 1024.7 |
| 20260502113843 | 65 | 135 | 7.0 | 11.3 | 0.00 | 0.00 | 0.00 | 52 | 1024.8 |
| 20260502113319 | 66 | 138 | 8.7 | 11.3 | 0.00 | 0.00 | 0.00 | 50 | 1024.8 |
| 20260502112817 | 65 | 149 | 7.8 | 10.4 | 0.00 | 0.00 | 0.00 | 52 | 1025.0 |
| 20260502112315 | 65 | 140 | 6.1 | 10.4 | 0.00 | 0.00 | 0.00 | 52 | 1025.1 |
| 20260502111859 | 65 | 146 | 7.8 | 13.0 | 0.00 | 0.00 | 0.00 | 52 | 1025.1 |
| 20260502111354 | 65 | 145 | 6.1 | 13.0 | 0.00 | 0.00 | 0.00 | 53 | 1025.2 |
| 20260502110830 | 64 | 165 | 6.1 | 9.6 | 0.00 | 0.00 | 0.00 | 54 | 1025.2 |
| 20260502110329 | 65 | 137 | 5.2 | 9.6 | 0.00 | 0.00 | 0.00 | 53 | 1025.4 |
| 20260502105828 | 64 | 173 | 2.6 | 9.6 | 0.00 | 0.00 | 0.00 | 54 | 1025.6 |
| 20260502105324 | 65 | 136 | 6.1 | 9.6 | 0.00 | 0.00 | 0.00 | 53 | 1025.6 |
| 20260502104820 | 65 | 207 | 5.2 | 8.7 | 0.00 | 0.00 | 0.00 | 54 | 1025.8 |
| 20260502104315 | 64 | 156 | 6.1 | 8.7 | 0.00 | 0.00 | 0.00 | 55 | 1025.9 |
| 20260502103831 | 64 | 144 | 3.5 | 8.7 | 0.00 | 0.00 | 0.00 | 55 | 1025.9 |
| 20260502103350 | 63 | 130 | 4.3 | 8.7 | 0.00 | 0.00 | 0.00 | 53 | 1025.9 |
| 20260502102827 | 63 | 194 | 5.2 | 7.8 | 0.00 | 0.00 | 0.00 | 55 | 1026.0 |
| 20260502102326 | 63 | 182 | 4.3 | 7.8 | 0.00 | 0.00 | 0.00 | 55 | 1026.0 |
| 20260502101321 | 63 | 174 | 2.6 | 9.6 | 0.00 | 0.00 | 0.00 | 54 | 1026.1 |
| 20260502100834 | 63 | 168 | 6.1 | 9.6 | 0.00 | 0.00 | 0.00 | 53 | 1026.2 |
| 20260502100351 | 63 | 137 | 3.5 | 7.0 | 0.00 | 0.00 | 0.00 | 55 | 1026.2 |
| 20260502091325 | 61 | 193 | 2.6 | 4.3 | 0.00 | 0.00 | 0.00 | 56 | 1026.5 |
| 20260502090823 | 61 | 206 | 3.5 | 4.3 | 0.00 | 0.00 | 0.00 | 54 | 1026.5 |
| 20260502090340 | 61 | 142 | 3.5 | 4.3 | 0.00 | 0.00 | 0.00 | 58 | 1026.7 |
| 20260502071332 | 56 | 178 | 3.5 | 6.1 | 0.00 | 0.00 | 0.00 | 73 | 1027.5 |
| 20260502070851 | 57 | 190 | 5.2 | 6.1 | 0.00 | 0.00 | 0.00 | 71 | 1027.5 |
| 20260502070349 | 57 | 136 | 1.7 | 4.3 | 0.00 | 0.00 | 0.00 | 71 | 1027.5 |
| 20260502065827 | 57 | 144 | 1.7 | 3.5 | 0.00 | 0.00 | 0.00 | 71 | 1027.6 |
| 20260502065324 | 57 | 131 | 1.7 | 3.5 | 0.00 | 0.00 | 0.00 | 71 | 1027.6 |
| 20260502064841 | 56 | 168 | 1.7 | 3.5 | 0.00 | 0.00 | 0.00 | 73 | 1027.6 |
| 20260502064319 | 56 | 134 | 1.7 | 4.3 | 0.00 | 0.00 | 0.00 | 72 | 1027.6 |
| 20260502063817 | 56 | 137 | 2.6 | 4.3 | 0.00 | 0.00 | 0.00 | 72 | 1027.6 |
| 20260502063317 | 56 | 174 | 0.9 | 3.5 | 0.00 | 0.00 | 0.00 | 71 | 1027.6 |
| 20260502062814 | 56 | 197 | 1.7 | 3.5 | 0.00 | 0.00 | 0.00 | 70 | 1027.7 |
| 20260502062341 | 56 | 71 | 0.9 | 2.6 | 0.00 | 0.00 | 0.00 | 71 | 1027.6 |
| 20260502061817 | 56 | 61 | 0.9 | 3.5 | 0.00 | 0.00 | 0.00 | 71 | 1027.6 |
| 20260502061316 | 55 | 61 | 2.6 | 3.5 | 0.00 | 0.00 | 0.00 | 72 | 1027.6 |
| 20260502060814 | 55 | 57 | 0.9 | 2.6 | 0.00 | 0.00 | 0.00 | 71 | 1027.6 |
| 20260502060334 | 55 | 57 | 0.9 | 2.6 | 0.00 | 0.00 | 0.00 | 71 | 1027.7 |
| 20260502055832 | 55 | 56 | 0.9 | 1.7 | 0.00 | 0.00 | 0.00 | 72 | 1027.7 |
| 20260502055328 | 54 | 219 | 0.0 | 3.5 | 0.00 | 0.00 | 0.00 | 72 | 1027.6 |
| 20260502054824 | 54 | 217 | 1.7 | 3.5 | 0.00 | 0.00 | 0.00 | 71 | 1027.7 |
| 20260502054322 | 54 | 298 | 0.0 | 1.7 | 0.00 | 0.00 | 0.00 | 72 | 1027.6 |
| 20260502053820 | 53 | 298 | 0.0 | 2.6 | 0.00 | 0.00 | 0.00 | 72 | 1027.7 |
| 20260502053320 | 53 | 296 | 1.7 | 2.6 | 0.00 | 0.00 | 0.00 | 71 | 1027.7 |
| 20260502052818 | 53 | 296 | 0.9 | 3.5 | 0.00 | 0.00 | 0.00 | 72 | 1027.7 |
| 20260502052316 | 52 | 308 | 1.7 | 3.5 | 0.00 | 0.00 | 0.00 | 71 | 1027.7 |
| 20260502051834 | 52 | 309 | 1.7 | 3.5 | 0.00 | 0.00 | 0.00 | 71 | 1027.7 |
| 20260502051332 | 52 | 306 | 2.6 | 4.3 | 0.00 | 0.00 | 0.00 | 72 | 1027.7 |
| 20260502050846 | 52 | 292 | 3.5 | 4.3 | 0.00 | 0.00 | 0.00 | 71 | 1027.6 |
| 20260502050322 | 52 | 303 | 1.7 | 3.5 | 0.00 | 0.00 | 0.00 | 70 | 1027.6 |
| 20260502045818 | 52 | 301 | 2.6 | 3.5 | 0.00 | 0.00 | 0.00 | 70 | 1027.6 |
| 20260502045335 | 52 | 286 | 0.9 | 2.6 | 0.00 | 0.00 | 0.00 | 70 | 1027.6 |
| 20260502044832 | 52 | 286 | 0.9 | 2.6 | 0.00 | 0.00 | 0.00 | 71 | 1027.6 |
| 20260502044349 | 52 | 286 | 1.7 | 2.6 | 0.00 | 0.00 | 0.00 | 71 | 1027.6 |
| 20260502043847 | 52 | 320 | 0.9 | 2.6 | 0.00 | 0.00 | 0.00 | 71 | 1027.7 |
| 20260502043323 | 52 | 321 | 0.9 | 2.6 | 0.00 | 0.00 | 0.00 | 71 | 1027.6 |
| 20260502042821 | 52 | 335 | 0.0 | 3.5 | 0.00 | 0.00 | 0.00 | 71 | 1027.6 |
| 20260502042321 | 51 | 335 | 1.7 | 3.5 | 0.00 | 0.00 | 0.00 | 72 | 1027.6 |
| 20260502041839 | 51 | 332 | 2.6 | 3.5 | 0.00 | 0.00 | 0.00 | 72 | 1027.6 |
| 20260502041336 | 51 | 322 | 0.9 | 3.5 | 0.00 | 0.00 | 0.00 | 72 | 1027.7 |
| 20260502040833 | 51 | 322 | 1.7 | 3.5 | 0.00 | 0.00 | 0.00 | 72 | 1027.7 |
| 20260502040351 | 51 | 321 | 2.6 | 3.5 | 0.00 | 0.00 | 0.00 | 72 | 1027.7 |
| 20260502035848 | 52 | 336 | 1.7 | 2.6 | 0.00 | 0.00 | 0.00 | 71 | 1027.6 |